Location: Anaheim
(33.8350°N, 117.9140°W)
Time: 00:21:34
(UTC-08:00)

Amateur Radio Satellites - All Passes

Search period start: 26 January 2015 23:51
Search period end: 27 January 2015 23:51
Location: Anaheim, 33.8350°N, 117.9140°W

Satellite Date Start Highest point End Downlink Frequencies (MHz)
Time Altitude Azimuth
BUGSAT 1 27 Jan 00:02:59 00:05:58 18° 290° (WNW) 00:08:49 437.445
POPSAT HIP 1 27 Jan 00:13:13 00:14:39 11° 292° (WNW) 00:15:50 437.405
SWISSCUBE 27 Jan 00:37:55 00:42:40 85° 76° (ENE) 00:47:26 437.505
SPROUT 27 Jan 00:42:55 00:44:26 11° 270° (W) 00:45:40 437.525
Oscar 19 27 Jan 00:47:07 00:51:45 34° 97° (E) 00:56:25 437.125/150
BEESAT 27 Jan 00:54:16 00:59:01 69° 258° (WSW) 01:03:46 436.000
ITUPSAT 1 27 Jan 00:56:31 01:01:14 67° 258° (WSW) 01:06:00 437.325
ITAMSAT 1 27 Jan 00:59:02 01:01:35 14° 91° (E) 01:04:27 435.822/435.867
M-CUBED/EXP-1 PRIME 27 Jan 01:28:33 01:31:49 23° 69° (ENE) 01:34:58 437.505
GONETS M04 27 Jan 01:31:22 01:40:10 87° 274° (W) 01:48:58
Gurwin Techsat 1B 27 Jan 01:39:36 01:43:55 26° 95° (E) 01:48:20 435.225
STARS 27 Jan 01:56:02 02:00:26 67° 76° (ENE) 02:04:52 437.465
KKS-1 27 Jan 01:56:37 02:01:05 76° 258° (WSW) 02:05:35 437.445
AIST 2 27 Jan 01:56:48 01:58:53 14° 109° (ESE) 02:01:13 435.215
AUBIESAT-1 27 Jan 02:03:02 02:07:08 54° 72° (ENE) 02:10:56 437.475
HORYU 2 27 Jan 02:06:47 02:08:05 11° 91° (E) 02:09:40 437.375
BEESAT 2 27 Jan 02:12:09 02:16:09 57° 116° (ESE) 02:20:15 435.950
O/OREOS (USA 219) 27 Jan 02:19:05 02:23:37 56° 68° (ENE) 02:28:08 437.305
Oscar 19 27 Jan 02:26:52 02:30:57 23° 291° (WNW) 02:34:51 437.125/150
BEESAT 3 27 Jan 02:28:48 02:32:53 77° 298° (WNW) 02:37:02 437.485
ITAMSAT 1 27 Jan 02:36:23 02:41:30 56° 286° (WNW) 02:46:36 435.822/435.867
CUSAT 1 27 Jan 03:03:05 03:09:17 27° 87° (E) 03:16:11 437.405
M-CUBED/EXP-1 PRIME 27 Jan 03:03:17 03:06:44 23° 258° (WSW) 03:09:54 437.505
PCSat 27 Jan 03:06:03 03:08:50 15° 106° (ESE) 03:11:55 145.827
MOZHAYETS 4 27 Jan 03:18:24 03:22:15 27° 72° (ENE) 03:26:08
Gurwin Techsat 1B 27 Jan 03:19:11 03:23:56 32° 289° (WNW) 03:28:34 435.225
AO-7 27 Jan 03:29:39 03:37:28 45° 100° (E) 03:45:20 29.400- 29.500
AIST 2 27 Jan 03:33:09 03:37:11 42° 303° (WNW) 03:41:17 435.215
GONETS M04 27 Jan 03:33:47 03:38:30 14° 297° (WNW) 03:42:32
HORYU 2 27 Jan 03:40:49 03:45:08 50° 286° (WNW) 03:49:24 437.375
BEESAT 2 27 Jan 03:52:56 03:54:48 12° 313° (NW) 03:56:31 435.950
O/OREOS (USA 219) 27 Jan 04:01:23 04:02:37 11° 260° (W) 04:03:31 437.305
DANDE 27 Jan 04:02:02 04:09:37 64° 94° (E) 04:18:12 436.750
ISS 27 Jan 04:07:31 04:08:53 12° 27° (NNE) 04:10:20 145.825
JAS-2 27 Jan 04:25:55 04:31:35 62° 101° (E) 04:37:59 435.910
PRISM 27 Jan 04:32:24 04:34:50 16° 70° (ENE) 04:37:27 437.425
RS-15 27 Jan 04:32:58 04:43:43 66° 114° (ESE) 04:54:31 29.354- 29.394
CUSAT 1 27 Jan 04:44:06 04:51:50 60° 283° (WNW) 05:00:13 437.405
PCSat 27 Jan 04:46:29 04:51:49 59° 298° (WNW) 04:57:11 145.827
MOZHAYETS 4 27 Jan 04:55:45 04:59:28 23° 266° (W) 05:03:04
CUBESAT XI-V 27 Jan 05:04:04 05:07:50 26° 71° (ENE) 05:11:41 437.345
AO-7 27 Jan 05:22:42 05:30:08 36° 296° (WNW) 05:37:22 29.400- 29.500
ISS 27 Jan 05:42:31 05:45:49 83° 227° (SW) 05:49:07 145.825
YUBILEINY 27 Jan 05:45:09 05:52:21 29° 71° (ENE) 05:59:49 435.215
DANDE 27 Jan 05:47:10 05:53:48 27° 293° (WNW) 06:00:39 436.750
STRAND 1 27 Jan 05:50:06 05:55:07 64° 75° (ENE) 06:00:11 437.568
Cubesat XI-IV 27 Jan 06:00:16 06:05:37 64° 101° (E) 06:10:57 437.490
PRISM 27 Jan 06:06:25 06:10:09 32° 262° (W) 06:13:51 437.425
JAS-2 27 Jan 06:12:55 06:16:27 16° 292° (WNW) 06:19:53 435.910
CUTE-I 27 Jan 06:20:57 06:26:20 81° 285° (WNW) 06:31:43 437.470
CUSAT 1 27 Jan 06:35:42 06:36:55 10° 302° (WNW) 06:37:20 437.405
CUBESAT XI-V 27 Jan 06:41:29 06:45:15 24° 265° (W) 06:48:55 437.345
RS-15 27 Jan 06:47:16 06:56:55 33° 316° (NW) 07:06:25 29.354- 29.394
STRAND 1 27 Jan 07:32:58 07:34:51 12° 270° (W) 07:36:23 437.568
BRITE-PL 27 Jan 07:37:15 07:41:45 25° 92° (E) 07:46:14 437.365/2234.400
YUBILEINY 27 Jan 07:41:08 07:49:36 53° 269° (W) 07:58:00 435.215
CUTE 1.7 + AOD 2 27 Jan 07:42:17 07:44:18 14° 91° (E) 07:46:33 437.475
Cubesat XI-IV 27 Jan 07:42:23 07:45:14 14° 294° (WNW) 07:47:48 437.490
GOMX 1 27 Jan 07:44:48 07:48:30 19° 91° (E) 07:52:16 467.674
HO-68 27 Jan 07:49:46 07:55:42 29° 95° (E) 08:01:48 435.675
VERMONT LUNAR 27 Jan 07:53:07 07:55:57 24° 145° (SE) 07:58:51 437.305
DOVE 4 27 Jan 08:07:25 08:11:21 22° 92° (E) 08:15:16 437.250
CINEMA 3 27 Jan 08:12:39 08:14:23 12° 89° (E) 08:16:24 145.822/145.860
SEEDS 27 Jan 08:14:46 08:18:23 29° 96° (E) 08:22:03 437.485
PHONESAT 2.4 27 Jan 08:38:24 08:41:36 31° 147° (SSE) 08:44:52 2401.200-2431.200
UNISAT 6 27 Jan 08:42:45 08:45:31 16° 69° (ENE) 08:48:29 437.425
COMPASS 1 27 Jan 08:44:12 08:48:17 56° 99° (E) 08:52:22 437.405
UWE-3 27 Jan 08:47:28 08:49:28 13° 90° (E) 08:51:42 435.000/436.395/437.385
CANX-2 27 Jan 08:51:47 08:56:00 70° 283° (WNW) 09:00:11 2200.000
POLYITAN 1 27 Jan 09:04:41 09:06:59 15° 69° (ENE) 09:09:29 437.675
Oscar 11 27 Jan 09:09:53 09:14:00 44° 99° (E) 09:18:07 145.826/435.025
RS-15 27 Jan 09:11:28 09:14:27 11° 349° (NNW) 09:17:08 29.354- 29.394
AAUSAT CUBESAT 2 27 Jan 09:12:11 09:16:20 74° 283° (WNW) 09:20:27 437.432
BRITE-PL 27 Jan 09:15:08 09:20:21 38° 288° (WNW) 09:25:19 437.365/2234.400
BUGSAT 1 27 Jan 09:15:11 09:17:06 13° 69° (ENE) 09:19:14 437.445
CUTE 1.7 + AOD 2 27 Jan 09:16:32 09:20:28 38° 286° (WNW) 09:24:21 437.475
ANTELSAT 27 Jan 09:16:49 09:21:09 38° 73° (ENE) 09:25:32 437.575/2403.000
DELFI C3 27 Jan 09:20:01 09:23:55 46° 99° (E) 09:27:49 145.870
GOMX 1 27 Jan 09:21:44 09:26:53 44° 287° (WNW) 09:31:46 467.674
SO-50 27 Jan 09:21:51 09:24:53 18° 110° (ESE) 09:28:09 436.795
POPSAT HIP 1 27 Jan 09:24:42 09:28:07 25° 71° (ENE) 09:31:40 437.405
TIGRISAT 27 Jan 09:25:43 09:30:12 46° 74° (ENE) 09:34:44 435.000
DUCHIFAT 1 27 Jan 09:28:32 09:32:05 27° 72° (ENE) 09:35:44 145.980
VERMONT LUNAR 27 Jan 09:30:28 09:33:54 60° 338° (NNW) 09:37:23 437.305
HO-68 27 Jan 09:36:51 09:43:37 46° 291° (WNW) 09:50:18 435.675
CUBEBUG 2 27 Jan 09:37:13 09:41:47 65° 100° (E) 09:46:10 437.445
UKube-1 27 Jan 09:43:54 09:48:13 61° 101° (E) 09:52:32 .
DOVE 4 27 Jan 09:44:29 09:49:13 35° 288° (WNW) 09:53:40 437.250
CINEMA 3 27 Jan 09:47:20 09:52:05 54° 285° (WNW) 09:56:36 145.822/145.860
SEEDS 27 Jan 09:51:07 09:54:04 18° 289° (WNW) 09:56:52 437.485
ZACube-1 27 Jan 09:54:22 09:58:48 71° 101° (E) 10:03:05 437.345
NANOSAT C BR1 27 Jan 10:01:51 10:06:05 71° 76° (ENE) 10:10:21 145.865
DX 1 27 Jan 10:02:03 10:06:28 77° 284° (WNW) 10:10:51 434.975-435.025
FUNcube-1 27 Jan 10:07:04 10:11:31 82° 283° (WNW) 10:15:49 145.935
50 SAT 27 Jan 10:10:31 10:14:19 39° 98° (E) 10:18:06 437.505
ESTCUBE 1 27 Jan 10:13:10 10:16:21 19° 94° (E) 10:19:41 437.505/2401.250
HUMSAT D 27 Jan 10:14:14 10:18:27 63° 101° (E) 10:22:35 437.325/437.525
QB50P2 27 Jan 10:14:52 10:19:08 78° 258° (WSW) 10:23:27 145.880/145.840
AISAT 27 Jan 10:16:18 10:20:44 53° 100° (E) 10:25:08 437.250
PHONESAT 2.4 27 Jan 10:16:33 10:20:06 52° 341° (NNW) 10:23:40 2401.200-2431.200
UNISAT 6 27 Jan 10:17:29 10:22:00 44° 262° (W) 10:26:30 437.425
UWE-3 27 Jan 10:22:04 10:26:22 43° 286° (WNW) 10:30:29 435.000/436.395/437.385
QB50P1 27 Jan 10:25:04 10:29:16 59° 259° (W) 10:33:30 145.935-145.965
BEESAT 2 27 Jan 10:37:18 10:39:08 13° 47° (NE) 10:41:08 435.950
POLYITAN 1 27 Jan 10:38:36 10:42:38 39° 262° (W) 10:46:41 437.675
VELOX 1 27 Jan 10:45:41 10:50:11 71° 284° (WNW) 10:54:38 145.980
Oscar 11 27 Jan 10:47:44 10:49:52 13° 291° (WNW) 10:51:46 145.826/435.025
BUGSAT 1 27 Jan 10:48:29 10:52:18 38° 262° (W) 10:56:10 437.445
BEESAT 3 27 Jan 10:52:39 10:55:45 20° 52° (NE) 10:58:54 437.485
ANTELSAT 27 Jan 10:54:50 10:58:06 18° 267° (W) 11:01:12 437.575/2403.000
SPROUT 27 Jan 10:56:50 10:58:14 12° 90° (E) 10:59:54 437.525
DELFI C3 27 Jan 10:57:35 10:58:49 11° 291° (WNW) 10:59:47 145.870
AIST 1 27 Jan 10:58:52 11:02:57 48° 94° (E) 11:07:05
CUBEBUG 1 27 Jan 11:00:32 11:04:59 66° 101° (ESE) 11:09:23 437.445
POPSAT HIP 1 27 Jan 11:00:35 11:04:00 22° 265° (W) 11:07:19 437.405
SO-50 27 Jan 11:00:56 11:05:10 38° 305° (NW) 11:09:32 436.795
TIGRISAT 27 Jan 11:04:34 11:07:14 14° 269° (W) 11:09:40 435.000
DUCHIFAT 1 27 Jan 11:04:44 11:07:57 20° 266° (W) 11:11:05 145.980
VERMONT LUNAR 27 Jan 11:09:23 11:12:26 27° 355° (N) 11:15:30 437.305
UKube-1 27 Jan 11:23:23 11:23:57 10° 293° (WNW) 11:24:14 .
RS-15 27 Jan 11:27:42 11:33:48 16° 26° (NNE) 11:40:33 29.354- 29.394
TISAT 1 27 Jan 11:39:04 11:43:04 38° 98° (E) 11:47:04 437.305
GONETS M04 27 Jan 11:46:58 11:54:52 39° 75° (ENE) 12:02:52
50 SAT 27 Jan 11:47:14 11:49:08 13° 291° (WNW) 11:50:50 437.505
ESTCUBE 1 27 Jan 11:49:17 11:53:19 32° 288° (WNW) 11:57:18 437.505/2401.250
AISAT 27 Jan 11:54:58 11:56:57 12° 293° (WNW) 11:58:42 437.250
PHONESAT 2.4 27 Jan 11:55:58 11:59:07 27° 357° (N) 12:02:19 2401.200-2431.200
AIST 2 27 Jan 11:58:41 12:02:40 37° 56° (NE) 12:06:35 435.215
Oscar 19 27 Jan 12:00:10 12:04:48 34° 71° (ENE) 12:09:30 437.125/150
ITAMSAT 1 27 Jan 12:13:37 12:16:28 16° 66° (ENE) 12:19:33 435.822/435.867
BEESAT 2 27 Jan 12:13:41 12:17:46 54° 244° (WSW) 12:21:45 435.950
BEESAT 3 27 Jan 12:30:18 12:33:56 29° 247° (WSW) 12:37:29 437.485
SPROUT 27 Jan 12:30:28 12:34:40 47° 286° (WNW) 12:38:50 437.525
AIST 1 27 Jan 12:40:19 12:41:02 10° 290° (WNW) 12:41:27
SWISSCUBE 27 Jan 12:42:44 12:46:52 30° 96° (E) 12:51:05 437.505
VERMONT LUNAR 27 Jan 12:47:52 12:51:06 34° 12° (NNE) 12:54:22 437.305
Gurwin Techsat 1B 27 Jan 12:57:00 13:01:24 28° 70° (ENE) 13:05:57 435.225
BEESAT 27 Jan 12:58:42 13:03:11 41° 99° (E) 13:07:42 436.000
ITUPSAT 1 27 Jan 13:01:14 13:05:47 43° 99° (E) 13:10:20 437.325
TISAT 1 27 Jan 13:16:03 13:18:38 15° 291° (WNW) 13:21:01 437.305
PHONESAT 2.4 27 Jan 13:34:47 13:38:14 39° 15° (NNE) 13:41:42 2401.200-2431.200
PCSat 27 Jan 13:38:18 13:43:32 48° 60° (ENE) 13:48:46 145.827
AIST 2 27 Jan 13:38:18 13:41:00 16° 250° (WSW) 13:43:31 435.215
RS-15 27 Jan 13:38:41 13:49:45 55° 54° (NE) 14:01:23 29.354- 29.394
Oscar 19 27 Jan 13:40:04 13:44:14 23° 266° (W) 13:48:16 437.125/150
GONETS M04 27 Jan 13:43:48 13:51:42 39° 272° (W) 13:59:24
ITAMSAT 1 27 Jan 13:50:31 13:55:34 54° 260° (W) 14:00:39 435.822/435.867
STARS 27 Jan 13:51:13 13:54:02 17° 93° (E) 13:57:01 437.465
KKS-1 27 Jan 13:52:17 13:56:07 28° 96° (E) 14:00:00 437.445
CUSAT 1 27 Jan 13:52:53 13:53:56 11° 57° (ENE) 13:55:21 437.405
SWISSCUBE 27 Jan 14:20:49 14:24:38 23° 290° (WNW) 14:28:20 437.505
AO-7 27 Jan 14:24:18 14:32:00 44° 66° (ENE) 14:39:48 29.400- 29.500
VERMONT LUNAR 27 Jan 14:25:53 14:29:24 66° 208° (SSW) 14:32:54 437.305
HORYU 2 27 Jan 14:35:01 14:39:32 90° 114° (ESE) 14:44:04 437.375
Gurwin Techsat 1B 27 Jan 14:36:42 14:41:20 30° 264° (W) 14:45:54 435.225
BEESAT 27 Jan 14:37:34 14:40:46 17° 292° (WNW) 14:43:46 436.000
JAS-2 27 Jan 14:37:40 14:40:27 15° 68° (ENE) 14:43:26 435.910
ITUPSAT 1 27 Jan 14:40:16 14:43:23 17° 292° (WNW) 14:46:19 437.325
M-CUBED/EXP-1 PRIME 27 Jan 14:48:37 14:51:30 27° 102° (ESE) 14:54:31 437.505
DANDE 27 Jan 14:53:00 14:59:03 37° 71° (ENE) 15:03:44 436.750
PHONESAT 2.4 27 Jan 15:13:20 15:16:54 52° 210° (SSW) 15:20:28 2401.200-2431.200
PCSat 27 Jan 15:22:52 15:26:37 19° 254° (WSW) 15:30:10 145.827
AUBIESAT-1 27 Jan 15:23:05 15:26:25 84° 104° (ESE) 15:29:51 437.475
STARS 27 Jan 15:26:36 15:30:40 34° 287° (WNW) 15:34:39 437.465
KKS-1 27 Jan 15:29:10 15:32:40 22° 290° (WNW) 15:36:01 437.445
CUSAT 1 27 Jan 15:32:18 15:38:28 77° 263° (W) 15:42:57 437.405
RS-15 27 Jan 15:51:32 16:01:59 40° 251° (WSW) 16:12:32 29.354- 29.394
CUTE-I 27 Jan 16:02:52 16:04:45 12° 65° (ENE) 16:06:57 437.470
VERMONT LUNAR 27 Jan 16:06:30 16:07:08 10° 219° (SW) 16:07:37 437.305
AO-7 27 Jan 16:17:16 16:24:52 37° 262° (W) 16:32:21 29.400- 29.500
JAS-2 27 Jan 16:19:39 16:25:19 57° 259° (W) 16:30:32 435.910
M-CUBED/EXP-1 PRIME 27 Jan 16:25:00 16:26:22 12° 294° (WNW) 16:27:34 437.505
O/OREOS (USA 219) 27 Jan 16:27:21 16:31:45 57° 292° (WNW) 16:36:13 437.305
DANDE 27 Jan 16:37:10 16:42:05 23° 276° (W) 16:45:55 436.750
MOZHAYETS 4 27 Jan 16:53:46 16:58:20 73° 283° (WNW) 17:02:52
JUGNU 27 Jan 17:13:47 17:17:01 15° 168° (SSE) 17:20:20 437.505
Cubesat XI-IV 27 Jan 17:18:27 17:23:44 72° 76° (ENE) 17:29:04 437.490
CUTE-I 27 Jan 17:38:59 17:44:17 73° 258° (WSW) 17:49:37 437.470
SRMSAT 27 Jan 17:52:33 17:53:47 11° 164° (SSE) 17:55:09 437.500
PRISM 27 Jan 17:52:45 17:56:42 43° 99° (E) 18:00:41 437.425
STRAND 1 27 Jan 18:05:01 18:09:28 30° 96° (E) 18:13:58 437.568
HO-68 27 Jan 18:16:58 18:20:25 15° 60° (ENE) 18:24:16 435.675
CUBESAT XI-V 27 Jan 18:41:03 18:45:45 73° 283° (WNW) 18:50:26 437.345
YUBILEINY 27 Jan 18:41:08 18:48:45 37° 88° (E) 18:56:34 435.215
BRITE-PL 27 Jan 18:44:55 18:48:05 18° 67° (ENE) 18:51:37 437.365/2234.400
GOMX 1 27 Jan 18:50:07 18:52:29 14° 66° (ENE) 18:55:11 467.674
JUGNU 27 Jan 19:01:06 19:05:24 21° 178° (S) 19:09:44 437.505
Cubesat XI-IV 27 Jan 19:03:01 19:04:29 11° 271° (W) 19:05:31 437.490
SEEDS 27 Jan 19:04:53 19:06:56 14° 69° (ENE) 19:09:12 437.485
DOVE 4 27 Jan 19:09:56 19:12:47 16° 67° (ENE) 19:15:57 437.250
PRISM 27 Jan 19:30:03 19:31:54 12° 292° (WNW) 19:33:33 437.425
COMPASS 1 27 Jan 19:32:32 19:35:53 24° 72° (ENE) 19:39:19 437.405
SO-50 27 Jan 19:35:35 19:40:30 66° 60° (ENE) 19:45:23 436.795
SRMSAT 27 Jan 19:38:17 19:42:18 19° 173° (S) 19:46:22 437.500
CANX-2 27 Jan 19:40:52 19:45:00 49° 75° (ENE) 19:49:10 2200.000
STRAND 1 27 Jan 19:44:15 19:48:35 27° 290° (WNW) 19:52:48 437.568
AAUSAT CUBESAT 2 27 Jan 19:59:27 20:03:27 43° 74° (ENE) 20:07:28 437.432
HO-68 27 Jan 20:00:10 20:07:20 90° 252° (WSW) 20:14:32 435.675
Oscar 11 27 Jan 20:01:35 20:04:53 22° 71° (ENE) 20:08:18 145.826/435.025
CUTE 1.7 + AOD 2 27 Jan 20:05:06 20:09:24 89° 93° (E) 20:13:43 437.475
DELFI C3 27 Jan 20:05:34 20:08:19 18° 71° (ENE) 20:11:13 145.870
BRITE-PL 27 Jan 20:21:31 20:26:11 46° 263° (W) 20:31:15 437.365/2234.400
GOMX 1 27 Jan 20:25:11 20:30:02 61° 261° (W) 20:35:15 467.674
CUBEBUG 2 27 Jan 20:31:29 20:35:44 36° 73° (ENE) 20:40:08 437.445
UKube-1 27 Jan 20:35:30 20:39:17 31° 72° (ENE) 20:43:08 .
YUBILEINY 27 Jan 20:37:27 20:45:31 40° 285° (WNW) 20:53:30 435.215
SEEDS 27 Jan 20:38:25 20:42:28 41° 262° (W) 20:46:31 437.485
CINEMA 3 27 Jan 20:44:21 20:49:13 87° 78° (ENE) 20:54:16 145.822/145.860
ISS 27 Jan 20:44:23 20:46:46 19° 129° (SE) 20:49:13 145.825
DOVE 4 27 Jan 20:45:18 20:50:06 52° 262° (W) 20:55:09 437.250
ZACube-1 27 Jan 20:46:29 20:50:38 35° 73° (ENE) 20:54:51 437.345
JUGNU 27 Jan 20:49:48 20:53:49 18° 188° (S) 20:57:47 437.505
DX 1 27 Jan 20:53:49 20:58:03 55° 75° (ENE) 21:02:20 434.975-435.025
50 SAT 27 Jan 20:55:27 20:57:55 16° 70° (ENE) 21:00:34 437.505
FUNcube-1 27 Jan 20:58:44 21:03:08 48° 75° (ENE) 21:07:35 145.935
HUMSAT D 27 Jan 21:02:48 21:06:28 28° 72° (ENE) 21:10:13 437.325/437.525
COMPASS 1 27 Jan 21:08:11 21:11:34 22° 266° (W) 21:14:51 437.405
AISAT 27 Jan 21:11:00 21:14:49 30° 72° (ENE) 21:18:44 437.250
ESTCUBE 1 27 Jan 21:11:08 21:12:38 12° 67° (ENE) 21:14:24 437.505/2401.250
UWE-3 27 Jan 21:14:36 21:19:15 89° 258° (WSW) 21:24:00 435.000/436.395/437.385
SO-50 27 Jan 21:18:44 21:20:36 12° 252° (WSW) 21:22:08 436.795
CANX-2 27 Jan 21:19:56 21:21:17 11° 270° (W) 21:22:22 2200.000
TIGRISAT 27 Jan 21:23:52 21:25:32 12° 90° (E) 21:27:27 435.000
SRMSAT 27 Jan 21:26:32 21:30:52 21° 183° (S) 21:35:11 437.500
Oscar 11 27 Jan 21:37:17 21:40:58 26° 264° (W) 21:44:35 145.826/435.025
AAUSAT CUBESAT 2 27 Jan 21:37:39 21:39:24 12° 269° (W) 21:40:53 437.432
VELOX 1 27 Jan 21:39:33 21:43:54 63° 76° (ENE) 21:48:18 145.980
DELFI C3 27 Jan 21:39:53 21:43:26 27° 264° (W) 21:46:54 145.870
NANOSAT C BR1 27 Jan 21:52:25 21:54:57 16° 92° (E) 21:57:39 145.865
HO-68 27 Jan 21:53:10 21:56:05 12° 272° (W) 21:58:23 435.675
CUBEBUG 1 27 Jan 21:53:23 21:57:13 33° 73° (ENE) 22:01:09 437.445
QB50P2 27 Jan 22:05:05 22:08:29 23° 95° (E) 22:11:57 145.880/145.840
CUBEBUG 2 27 Jan 22:09:09 22:12:34 19° 268° (W) 22:15:54 437.445
UKube-1 27 Jan 22:12:30 22:15:32 18° 266° (W) 22:18:26 .
UNISAT 6 27 Jan 22:13:44 22:18:05 52° 99° (E) 22:22:19 437.425
QB50P1 27 Jan 22:14:43 22:18:29 29° 97° (E) 22:22:15 145.935-145.965
ISS 27 Jan 22:20:11 22:23:09 30° 323° (NW) 22:26:06 145.825
ZACube-1 27 Jan 22:23:56 22:27:08 18° 268° (W) 22:30:13 437.345
POLYITAN 1 27 Jan 22:28:08 22:32:16 44° 99° (E) 22:36:22 437.675
TISAT 1 27 Jan 22:28:51 22:31:40 18° 70° (ENE) 22:34:38 437.305
50 SAT 27 Jan 22:29:04 22:32:49 33° 263° (W) 22:36:33 437.505
BUGSAT 1 27 Jan 22:34:37 22:38:38 39° 98° (E) 22:42:39 437.445
FUNcube-1 27 Jan 22:37:33 22:39:49 13° 270° (W) 22:41:49 145.935
HUMSAT D 27 Jan 22:38:59 22:42:17 20° 266° (W) 22:45:29 437.325/437.525
JUGNU 27 Jan 22:41:16 22:42:11 10° 196° (SSW) 22:42:57 437.505
ESTCUBE 1 27 Jan 22:44:43 22:49:07 54° 260° (W) 22:53:31 437.505/2401.250
AIST 1 27 Jan 22:47:20 22:51:38 62° 266° (W) 22:55:58
AISAT 27 Jan 22:48:11 22:51:30 20° 266° (W) 22:54:43 437.250
POPSAT HIP 1 27 Jan 22:48:52 22:53:12 80° 100° (E) 22:57:30 437.405
ANTELSAT 27 Jan 22:49:36 22:53:58 57° 285° (WNW) 22:58:12 437.575/2403.000
DUCHIFAT 1 27 Jan 22:52:29 22:56:48 87° 102° (ESE) 23:01:05 145.980
TIGRISAT 27 Jan 22:58:23 23:02:39 45° 286° (WNW) 23:06:47 435.000
SRMSAT 27 Jan 23:16:09 23:19:24 15° 192° (SSW) 23:22:35 437.500
SPROUT 27 Jan 23:20:31 23:24:49 78° 76° (ENE) 23:29:09 437.525
NANOSAT C BR1 27 Jan 23:27:03 23:30:59 35° 287° (WNW) 23:34:51 145.865
CUBEBUG 1 27 Jan 23:30:47 23:33:44 17° 267° (W) 23:36:30 437.445
QB50P2 27 Jan 23:40:50 23:44:21 24° 289° (WNW) 23:47:46 145.880/145.840
